Home   Weather   Strasbourg   Past weeks

Flag for France Past Weather in Strasbourg, Alsace, France — Yesterday and Last 2 Weeks

43 °F


Feels Like: 41 °F
Forecast: 40 / 57 °F
Wind: 3 mph from Southwest

Location: Strasbourg Airport

Current Time: Oct 28, 2016 at 11:45:46 PM

Latest Report: Oct 28, 2016 at 11:00 PM

Visibility: 3 mi

Pressure: 30.57 "Hg

Humidity: 93%

Dew Point: 41 °F

Location of StrasbourgLocation

Past Weather in Strasbourg — Graph


Strasbourg Temperature Yesterday

Maximum temperature yesterday: 59 °F (at 2:00 PM)
Minimum temperature yesterday: 36 °F (at 7:00 AM)
Average temperature yesterday: 46 °F

High & Low Weather Summary for the Past Weeks

High64 °F (Oct 15, 4:00 PM)100% (Oct 15, 12:30 AM)30.60 "Hg (Oct 15, 12:30 AM)
Low34 °F (Oct 23, 2:30 AM)51% (Oct 19, 4:00 PM)29.65 "Hg (Oct 14, 5:00 PM)
Average50 °F86%30.11 "Hg
* Reported Oct 13 10:00 PM — Oct 28 10:30 PM, Strasbourg, Weather by CustomWeather, © 2016

Note: Actual official high and low records may vary slightly from our data, if they occured in-between our weather recording intervals... More about our weather records


Strasbourg Weather History for the Previous 24 Hours

Scroll right to see more
Time TempWeatherWind HumidityBarometerVisibility
10:30 PM
Fri, Oct 28
43 °FFog.No wind93%30.57 "Hg3 mi
10:00 PM43 °FFog.2 mph93%30.57 "Hg3 mi
9:30 PM45 °FPassing clouds.1 mph87%30.60 "Hg4 mi
9:00 PM46 °FClear.5 mph87%30.60 "Hg5 mi
8:30 PM46 °FClear.5 mph87%30.60 "Hg5 mi
8:00 PM46 °FClear.7 mph93%30.60 "Hg4 mi
7:30 PM48 °FClear.9 mph87%30.60 "Hg5 mi
7:00 PM48 °FPassing clouds.8 mph87%30.57 "HgN/A
6:30 PM50 °FClear.7 mph82%30.57 "Hg10 mi
6:00 PM52 °FSunny.5 mph77%30.57 "Hg10 mi
5:30 PM54 °FPassing clouds.6 mph77%30.57 "HgN/A
5:00 PM55 °FSunny.9 mph77%30.57 "Hg10 mi
4:30 PM57 °FPartly sunny.8 mph72%30.57 "HgN/A
4:00 PM57 °FPassing clouds.5 mph77%30.57 "HgN/A
3:30 PM55 °FPassing clouds.3 mph82%30.57 "HgN/A
3:00 PM54 °FSunny.2 mph88%30.57 "Hg10 mi
2:30 PM52 °FClear.1 mph94%30.57 "Hg6 mi
2:00 PM48 °FPartly sunny.2 mph100%30.57 "Hg4 mi
1:30 PM46 °FFog.2 mph100%30.57 "Hg2 mi
1:00 PM46 °FFog.1 mph100%30.60 "Hg2 mi
12:30 PM46 °FFog.2 mph93%30.57 "Hg1 mi
12:00 PM45 °FFog.2 mph100%30.60 "Hg0 mi
11:30 AM43 °FFog.2 mph100%30.57 "Hg0 mi
11:00 AM43 °FFog.1 mph100%30.57 "Hg0 mi
10:30 AM43 °FFog.2 mph100%30.57 "Hg0 mi
10:00 AM41 °FFog.3 mph100%30.57 "Hg0 mi
9:30 AM39 °FFog.5 mph100%30.57 "Hg0 mi
9:00 AM39 °FDense fog.3 mph100%30.57 "Hg1 mi
8:30 AM39 °FFog.3 mph100%30.57 "Hg1 mi
8:00 AM41 °FFog.5 mph93%30.54 "Hg0 mi
7:30 AM41 °FFog.3 mph100%30.54 "Hg0 mi
7:00 AM41 °FFog.1 mph93%30.54 "Hg0 mi
6:30 AM41 °FFog.No wind100%30.54 "Hg1 mi
6:00 AM41 °FFog.No wind100%30.54 "Hg0 mi
5:30 AM43 °FFog.2 mph100%30.54 "Hg0 mi
5:00 AM41 °FFog.3 mph100%30.51 "Hg1 mi
4:30 AM39 °FFog.2 mph100%30.54 "Hg0 mi
4:00 AM39 °FFog.3 mph100%30.51 "Hg0 mi
3:30 AM39 °FFog.1 mph100%30.54 "Hg1 mi
3:00 AM39 °FFog.No wind100%30.54 "Hg1 mi
2:30 AM39 °FFog.No wind100%30.54 "Hg0 mi
2:00 AM39 °FFog.1 mph93%30.54 "Hg1 mi
1:30 AM41 °FFog.2 mph93%30.54 "Hg1 mi
1:00 AM41 °FFog.No wind93%30.54 "Hg3 mi
12:30 AM43 °FFog.No wind93%30.54 "Hg3 mi
12:00 AM41 °FFog.3 mph100%30.54 "Hg2 mi
11:30 PM
Thu, Oct 27
43 °FFog.No wind93%30.54 "Hg3 mi
11:00 PM43 °FFog.1 mph100%30.54 "Hg3 mi
Weather by CustomWeather, © 2016

See weather overviewHow to use our weather pages